[[{"header":{"parameterUnit":"m.s-1","parameterCategory":1,"la1":30.2991,"la2":30.254,"lo1":-89.0895,"lo2":-89.0444,"dy":0.0017,"dx":0.0017,"nx":28,"ny":28,"refTime":"2023-08-31T09:00:00:Z","depth":0,"parameterNumber":2,"parameterNumberName":"U-component_of_WINDS"},"data":[0,0,0,0,0,0,0,0,0,0,0,0,0,0,0,0,0,0,0,0,0,0,0,0,0,0,0,0,0,0,0,0,0,0,0,0,0,0,0,0,0,0,0,0,0,0,0,0,0,0,0,0,0,0,0,0,0,0,-1.2606,-1.2605,0,-1.2551,-1.255,-1.255,-1.2429,-1.2426,-1.2424,-1.2422,-1.2369,-1.237,-1.2371,0,0,0,0,0,0,0,0,0,0,0,0,0,-1.2608,-1.2609,-1.2606,-1.2605,-1.2604,-1.2551,-1.255,-1.255,-1.2429,-1.2426,-1.2423,-1.242,-1.2369,-1.237,-1.2371,0,0,0,0,0,0,0,0,0,0,0,0,0,-1.2586,-1.2609,-1.2606,-1.2538,-1.2531,-1.2551,-1.255,-1.2549,-1.243,-1.2426,-1.2423,-1.2419,-1.2369,-1.237,-1.2371,-1.2454,0,0,-1.2376,-1.2376,0,0,0,0,0,0,0,0,-1.2587,-1.2586,-1.2549,-1.2543,-1.2535,-1.2493,-1.2532,-1.2518,-1.2431,-1.2469,-1.2422,-1.2417,-1.2414,-1.2411,-1.2409,-1.2452,-1.245,-1.2376,-1.2377,-1.2377,-1.2378,0,0,0,0,0,0,0,-1.2589,-1.2587,-1.2584,-1.2548,-1.254,-1.2511,-1.2503,-1.2529,-1.2463,-1.2465,-1.2456,-1.2451,-1.2409,-1.2408,-1.2407,-1.2449,-1.2376,-1.2377,-1.2378,-1.2378,-1.2555,-1.2559,0,0,0,0,0,0,-1.26,-1.259,-1.2586,-1.2583,-1.2552,-1.2514,-1.2505,-1.251,-1.2462,-1.2451,-1.2454,-1.2446,-1.2408,-1.2406,-1.2405,-1.2498,-1.2377,-1.2378,-1.2379,-1.2551,-1.2556,-1.256,0,0,0,0,0,0,-1.26,-1.2601,-1.2588,-1.2584,-1.258,-1.2518,-1.2524,-1.2511,-1.251,-1.2454,-1.2442,-1.2465,-1.2405,-1.2403,-1.2442,-1.2495,-1.2379,-1.238,-1.2547,-1.2553,-1.2558,-1.2686,0,0,0,0,0,0,-1.2601,-1.2602,-1.2632,-1.2585,-1.258,-1.2627,-1.2527,-1.2513,-1.2512,-1.25,-1.2461,-1.2451,-1.2402,-1.2441,-1.2444,-1.2494,-1.2381,-1.2542,-1.2549,-1.2556,-1.2677,-1.2695,-1.2711,0,0,0,0,0,-1.2601,-1.2672,-1.2635,-1.2635,-1.2617,-1.263,-1.2627,-1.2568,-1.2517,-1.2547,-1.2511,-1.2452,-1.2488,-1.2446,-1.2448,-1.25,-1.2538,-1.2547,-1.2556,-1.2669,-1.2692,-1.2711,0,0,0,0,0,0,-1.2729,-1.2664,-1.2623,-1.2679,-1.2661,-1.2609,-1.2646,-1.2594,-1.2591,-1.258,-1.2507,-1.25,-1.2549,-1.2528,-1.2482,-1.2577,-1.2503,-1.2513,-1.2589,-1.261,-1.2627,-1.2632,-1.2383,0,0,0,0,0,-1.2763,-1.2778,-1.2721,-1.2777,-1.2769,-1.271,-1.2713,-1.2668,-1.2647,-1.2639,-1.2605,-1.2588,-1.2594,-1.2601,-1.2604,-1.2672,-1.2662,-1.2709,-1.2726,-1.2741,-1.275,-1.2784,-1.2804,-1.2589,-1.2589,-1.2588,0,0,-1.2835,-1.2802,-1.2816,-1.2801,-1.2782,-1.2799,-1.2704,-1.2727,-1.2739,-1.2643,-1.2677,-1.2652,-1.2627,-1.2681,-1.2703,-1.2665,-1.2807,-1.2752,-1.2764,-1.2765,-1.2795,-1.2815,-1.2834,-1.2594,-1.2593,-1.2592,0,0,-1.2975,-1.2951,-1.2995,-1.2976,-1.2947,-1.2906,-1.2916,-1.2872,-1.2851,-1.2884,-1.2812,-1.2825,-1.2839,-1.2824,-1.2818,-1.2949,-1.2895,-1.2952,-1.3044,-1.3077,-1.3094,-1.3109,-1.3156,-1.3173,-1.2962,-1.2962,-1.2962,0,-1.3069,-1.3091,-1.3024,-1.305,-1.3046,-1.2957,-1.3001,-1.2986,-1.296,-1.296,-1.2917,-1.293,-1.2908,-1.2956,-1.2988,-1.2986,-1.2996,-1.2958,-1.3097,-1.3111,-1.3124,-1.3168,-1.3186,-1.2969,-1.2969,-1.2968,-1.2967,0,-1.3208,-1.3224,-1.3263,-1.3238,-1.3238,-1.3273,-1.3211,-1.3219,-1.3174,-1.3138,-1.3172,-1.3141,-1.3136,-1.3143,-1.3101,-1.3186,-1.3163,-1.311,-1.3035,-1.3153,-1.3193,-1.3209,-1.298,-1.2977,-1.2975,-1.2973,0,0,-1.343,-1.3365,-1.338,-1.3367,-1.3327,-1.3338,-1.3369,-1.3362,-1.337,-1.3355,-1.3379,-1.3391,-1.334,-1.3334,-1.3288,-1.3317,-1.3423,-1.3259,-1.3258,-1.3291,-1.3514,-1.3556,-1.3577,-1.3385,-1.3388,-1.339,-1.3517,0,-1.3561,-1.3609,-1.3548,-1.361,-1.3624,-1.3538,-1.3564,-1.3543,-1.3509,-1.3516,-1.3479,-1.3489,-1.3422,-1.3417,-1.3442,-1.3405,-1.3467,-1.3394,-1.3408,-1.3409,-1.3418,-1.3597,-1.3642,-1.3762,-1.3532,-1.3534,-1.3536,0,-1.3722,-1.3712,-1.3775,-1.3728,-1.3732,-1.3757,-1.3745,-1.3752,-1.3726,-1.3699,-1.369,-1.3634,-1.3661,-1.3587,-1.3623,-1.3575,-1.3576,-1.3559,-1.3562,-1.3562,-1.3481,-1.3604,-1.3799,-1.3818,-1.356,-1.3558,-1.3557,0,-1.3878,-1.388,-1.3917,-1.3909,-1.3856,-1.3875,-1.3854,-1.3823,-1.3822,-1.3812,-1.3811,-1.3804,-1.3801,-1.3797,-1.3741,-1.3692,-1.3784,-1.3705,-1.3763,-1.3765,-1.3788,-1.3787,-1.3988,-1.3787,-1.3787,-1.3786,-1.3786,0,-1.4032,-1.4074,-1.3986,-1.401,-1.4054,-1.3982,-1.4028,-1.3998,-1.3971,-1.3987,-1.3912,-1.3929,-1.3853,-1.3861,-1.3817,-1.3854,-1.3853,-1.3832,-1.382,-1.384,-1.3842,-1.3841,-1.3832,-1.3791,-1.379,-1.3789,-1.3788,0,-1.4215,-1.4158,-1.4193,-1.4139,-1.4126,-1.4161,-1.4114,-1.4134,-1.4094,-1.4115,-1.4116,-1.4054,-1.406,-1.4003,-1.3998,-1.3968,-1.4026,-1.3998,-1.4035,-1.4027,-1.4088,-1.4083,-1.4296,-1.432,-1.4103,-1.4105,-1.4107,0,-1.4318,-1.4348,-1.4296,-1.4301,-1.4283,-1.4291,-1.4289,-1.422,-1.4221,-1.4191,-1.4214,-1.4213,-1.4209,-1.4223,-1.4178,-1.4174,-1.4147,-1.4221,-1.4146,-1.4164,-1.4148,-1.4148,-1.415,-1.4238,-1.424,-1.4243,-1.4244,0,-1.4507,-1.4477,-1.4476,-1.4465,-1.4465,-1.4453,-1.4437,-1.4445,-1.4369,-1.4374,-1.4378,-1.4375,-1.4369,-1.4369,-1.4356,-1.4334,-1.4278,-1.4268,-1.4281,-1.4302,-1.4322,-1.4312,-1.4079,-1.4264,-1.4262,-1.4261,-1.426,-1.4259,-1.4654,-1.4675,-1.4642,-1.4643,-1.4623,-1.4609,-1.4624,-1.4585,-1.4587,-1.4575,-1.4534,-1.4545,-1.4516,-1.4491,-1.4475,-1.4483,-1.4447,-1.4466,-1.4471,-1.4477,-1.4489,-1.4319,-1.448,-1.448,-1.4479,-1.4478,-1.4478,0,-1.4839,-1.4812,-1.4814,-1.4792,-1.4794,-1.4737,-1.4715,-1.472,-1.4731,-1.4707,-1.4704,-1.4708,-1.4707,-1.4661,-1.4655,-1.467,-1.4644,-1.4671,-1.467,-1.4666,-1.4521,-1.4511,-1.4693,-1.4693,-1.4692,-1.4692,-1.4692,-1.4692,-1.4936,-1.4969,-1.4935,-1.4957,-1.493,-1.494,-1.4932,-1.4919,-1.4899,-1.4907,-1.4905,-1.4874,-1.4842,-1.4832,-1.4828,-1.4815,-1.4816,-1.4853,-1.4831,-1.4697,-1.4676,-1.4657,-1.4646,-1.4854,-1.4854,-1.4974,-1.4976,-1.4977]},{"header":{"parameterUnit":"m.s-1","parameterCategory":1,"la1":30.2991,"la2":30.254,"lo1":-89.0895,"lo2":-89.0444,"dy":0.0017,"dx":0.0017,"nx":28,"ny":28,"refTime":"2023-08-31T09:00:00:Z","depth":0,"parameterNumber":3,"parameterNumberName":"V-component_of_WINDS"},"data":[0,0,0,0,0,0,0,0,0,0,0,0,0,0,0,0,0,0,0,0,0,0,0,0,0,0,0,0,0,0,0,0,0,0,0,0,0,0,0,0,0,0,0,0,0,0,0,0,0,0,0,0,0,0,0,0,0,0,-3.1946,-3.1947,0,-3.2021,-3.2021,-3.2022,-3.1995,-3.1993,-3.1992,-3.199,-3.2062,-3.2066,-3.2069,0,0,0,0,0,0,0,0,0,0,0,0,0,-3.1775,-3.1779,-3.1946,-3.1947,-3.1948,-3.202,-3.2021,-3.2022,-3.1995,-3.1993,-3.1991,-3.1989,-3.2061,-3.2065,-3.207,0,0,0,0,0,0,0,0,0,0,0,0,0,-3.185,-3.178,-3.1946,-3.1943,-3.1944,-3.202,-3.2022,-3.2023,-3.1996,-3.1993,-3.1991,-3.1988,-3.206,-3.2065,-3.207,-3.2153,0,0,-3.2086,-3.2088,0,0,0,0,0,0,0,0,-3.1845,-3.1856,-3.1943,-3.1944,-3.1944,-3.1996,-3.1988,-3.2066,-3.1996,-3.1976,-3.199,-3.1987,-3.2042,-3.2049,-3.2068,-3.2156,-3.2159,-3.2087,-3.209,-3.2092,-3.2093,0,0,0,0,0,0,0,-3.184,-3.1852,-3.1975,-3.1944,-3.1945,-3.1937,-3.1944,-3.2002,-3.2022,-3.1977,-3.1976,-3.1985,-3.2042,-3.2063,-3.2069,-3.216,-3.2086,-3.2091,-3.2094,-3.2096,-3.2317,-3.232,0,0,0,0,0,0,-3.1835,-3.1848,-3.1973,-3.1978,-3.1888,-3.1942,-3.195,-3.1982,-3.2021,-3.2025,-3.1987,-3.1984,-3.2055,-3.2063,-3.2072,-3.217,-3.2092,-3.2097,-3.21,-3.2315,-3.2318,-3.2321,0,0,0,0,0,0,-3.1832,-3.1847,-3.197,-3.1913,-3.1928,-3.1947,-3.1983,-3.1985,-3.2006,-3.2029,-3.2032,-3.2005,-3.2054,-3.2065,-3.2133,-3.2172,-3.2099,-3.2104,-3.2311,-3.2316,-3.2319,-3.2367,0,0,0,0,0,0,-3.1827,-3.1846,-3.1878,-3.1914,-3.1931,-3.2031,-3.1985,-3.1988,-3.2015,-3.2011,-3.2047,-3.205,-3.2053,-3.2125,-3.2138,-3.2178,-3.2108,-3.2308,-3.2313,-3.2318,-3.2362,-3.2372,-3.2381,0,0,0,0,0,-3.1821,-3.1888,-3.188,-3.1895,-3.1972,-3.2033,-3.2043,-3.2046,-3.2019,-3.2051,-3.2065,-3.2049,-3.2166,-3.2132,-3.2146,-3.2188,-3.2305,-3.2312,-3.2318,-3.2357,-3.237,-3.238,0,0,0,0,0,0,-3.1856,-3.1893,-3.1884,-3.1965,-3.1997,-3.2029,-3.2069,-3.2059,-3.2098,-3.2092,-3.2093,-3.2101,-3.2171,-3.2186,-3.2148,-3.2269,-3.2231,-3.224,-3.2256,-3.2269,-3.2278,-3.2272,-3.2112,0,0,0,0,0,-3.1874,-3.1921,-3.195,-3.2019,-3.2035,-3.205,-3.2076,-3.2076,-3.2108,-3.212,-3.214,-3.217,-3.2213,-3.2242,-3.2283,-3.2364,-3.237,-3.24,-3.2409,-3.2417,-3.2424,-3.2466,-3.2479,-3.2341,-3.2341,-3.2341,0,0,-3.1909,-3.1935,-3.1965,-3.2027,-3.2051,-3.2099,-3.2061,-3.2114,-3.2148,-3.2128,-3.2193,-3.2209,-3.2242,-3.2317,-3.235,-3.2332,-3.2464,-3.2425,-3.2431,-3.2434,-3.2474,-3.2487,-3.2499,-3.2345,-3.2344,-3.2344,0,0,-3.1999,-3.2025,-3.2084,-3.2109,-3.2146,-3.2155,-3.2169,-3.2203,-3.2213,-3.2279,-3.2264,-3.2305,-3.238,-3.2404,-3.2426,-3.2524,-3.251,-3.2537,-3.2586,-3.2627,-3.2638,-3.2648,-3.2681,-3.2693,-3.2545,-3.2545,-3.2545,0,-3.2039,-3.2112,-3.2115,-3.2169,-3.2195,-3.218,-3.2239,-3.2262,-3.2311,-3.2328,-3.2307,-3.2401,-3.2422,-3.2501,-3.2525,-3.2544,-3.2559,-3.2533,-3.2637,-3.2646,-3.2655,-3.2687,-3.27,-3.2548,-3.2548,-3.2548,-3.2547,0,-3.2157,-3.2208,-3.2251,-3.2299,-3.2331,-3.2387,-3.2397,-3.2428,-3.2424,-3.2435,-3.2501,-3.2527,-3.2572,-3.2591,-3.2588,-3.2669,-3.2656,-3.2636,-3.2598,-3.2671,-3.2701,-3.2713,-3.2553,-3.2551,-3.2551,-3.255,0,0,-3.2271,-3.232,-3.2336,-3.2357,-3.2397,-3.2435,-3.2489,-3.2535,-3.2561,-3.2595,-3.2639,-3.2703,-3.2684,-3.2709,-3.2708,-3.2744,-3.2818,-3.2719,-3.272,-3.2735,-3.2907,-3.2921,-3.2935,-3.2809,-3.2812,-3.2813,-3.2903,0,-3.2363,-3.246,-3.2464,-3.2552,-3.2597,-3.2583,-3.263,-3.2659,-3.267,-3.2709,-3.2721,-3.2766,-3.2738,-3.2753,-3.2788,-3.2802,-3.2852,-3.2795,-3.2848,-3.285,-3.2839,-3.2951,-3.2966,-3.305,-3.2915,-3.2917,-3.2919,0,-3.2483,-3.2521,-3.2614,-3.2646,-3.2665,-3.2708,-3.2749,-3.2787,-3.2819,-3.2824,-3.2852,-3.2846,-3.2899,-3.286,-3.2933,-3.2894,-3.2916,-3.2925,-3.2929,-3.2933,-3.2888,-3.2956,-3.3077,-3.3089,-3.2937,-3.2936,-3.2935,0,-3.2555,-3.2629,-3.2694,-3.2713,-3.2752,-3.2782,-3.2799,-3.2828,-3.2855,-3.2891,-3.2908,-3.2949,-3.2971,-3.3002,-3.3006,-3.2977,-3.3079,-3.304,-3.3083,-3.3083,-3.3104,-3.3102,-3.3228,-3.312,-3.312,-3.312,-3.312,0,-3.2656,-3.2713,-3.2727,-3.2766,-3.2829,-3.2832,-3.2893,-3.2908,-3.2934,-3.2975,-3.2965,-3.3003,-3.3007,-3.3046,-3.3049,-3.3108,-3.3118,-3.3123,-3.3123,-3.3123,-3.3122,-3.3137,-3.313,-3.3123,-3.3123,-3.3122,-3.3121,0,-3.2746,-3.2758,-3.2827,-3.2859,-3.2868,-3.2913,-3.2939,-3.2976,-3.2986,-3.3038,-3.305,-3.3066,-3.3111,-3.3118,-3.3171,-3.3174,-3.3243,-3.3238,-3.3233,-3.3232,-3.3274,-3.3269,-3.3412,-3.343,-3.3312,-3.3313,-3.3314,0,-3.2809,-3.2853,-3.2889,-3.2917,-3.2936,-3.298,-3.3007,-3.3012,-3.304,-3.3079,-3.311,-3.3155,-3.319,-3.3263,-3.3278,-3.3318,-3.3312,-3.336,-3.3318,-3.3316,-3.3311,-3.3308,-3.3311,-3.3367,-3.3368,-3.3369,-3.337,0,-3.292,-3.2923,-3.2964,-3.3006,-3.304,-3.3073,-3.3104,-3.3127,-3.3135,-3.3167,-3.3214,-3.3242,-3.3296,-3.3339,-3.3379,-3.3395,-3.3383,-3.3383,-3.3395,-3.3395,-3.339,-3.3392,-3.3253,-3.338,-3.3379,-3.3378,-3.3378,-3.3377,-3.2997,-3.3035,-3.3066,-3.3111,-3.3135,-3.3165,-3.3201,-3.3216,-3.3255,-3.33,-3.33,-3.3351,-3.3379,-3.3431,-3.345,-3.3488,-3.3473,-3.349,-3.3494,-3.3498,-3.3502,-3.3385,-3.3496,-3.3495,-3.3495,-3.3495,-3.3495,0,-3.3106,-3.3125,-3.3167,-3.3211,-3.3246,-3.3234,-3.3268,-3.3298,-3.3343,-3.3371,-3.3406,-3.3459,-3.3501,-3.3519,-3.356,-3.3587,-3.3582,-3.3597,-3.3594,-3.3598,-3.3514,-3.3499,-3.36,-3.36,-3.36,-3.36,-3.36,-3.36,-3.3166,-3.3228,-3.3236,-3.3309,-3.3327,-3.3378,-3.3398,-3.3424,-3.3447,-3.3506,-3.3542,-3.3554,-3.3577,-3.3619,-3.3656,-3.366,-3.3675,-3.3692,-3.3693,-3.3615,-3.3604,-3.3594,-3.358,-3.3695,-3.3696,-3.3774,-3.3775,-3.3775]}]]